This demonstration page uses our WeatherBlox Daily Observations layout. Learn more.

Left ArrowRight Arrow

39.92423, -83.80882

Hourly Observations for January 18, 2022

Temp ( °F °C ) Dew Point ( °F °C ) Humidity (%) Winds ( mph kmh ) Pressure ( in mb ) Visibility ( mi km ) Precip ( " mm )
12:56 am 00:56 Cloudy 25 -3.9 21 -6.1 85 85 W 13 20 30.01 1016 10 16 0.00 0.00
1:56 am 01:56 Cloudy with Light Snow 25 -3.9 20 -6.7 81 81 W 15 24 30.03 1017 9 14 0.00 0.00
2:56 am 02:56 Cloudy 25 -3.9 21 -6.1 85 85 W 9 15 30.04 1017 10 16 0.00 0.00
3:56 am 03:56 Cloudy 25 -3.9 21 -6.1 85 85 W 8 13 30.05 1018 10 16 0.00 0.00
4:56 am 04:56 Cloudy 25 -3.9 22 -5.6 88 88 WSW 6 9 30.06 1018 10 16 0.00 0.00
5:56 am 05:56 Cloudy 25 -3.9 22 -5.6 88 88 WSW 8 13 30.09 1019 10 16 0.00 0.00
6:56 am 06:56 Cloudy 26 -3.3 22 -5.6 84 84 SW 7 11 30.11 1020 10 16 0.00 0.00
7:56 am 07:56 Cloudy 25 -3.9 22 -5.6 88 88 SW 6 9 30.12 1020 10 16 0.00 0.00
8:56 am 08:56 Cloudy 26 -3.3 22 -5.6 84 84 SSW 7 11 30.14 1021 10 16 0.00 0.00
9:56 am 09:56 Cloudy 26 -3.3 21 -6.1 81 81 SW 12 19 30.16 1021 10 16 0.00 0.00
10:56 am 10:56 Cloudy 28 -2.2 22 -5.6 78 78 S 12 19 30.16 1021 10 16 0.00 0.00
11:12 am 11:12 Partly Cloudy 28 -2 21 -6 74 74 SSW 7 11 30.17 1022 10 16 0.00 0.00
11:56 am 11:56 Cloudy 29 -1.7 22 -5.6 75 75 SSW 10 17 30.14 1021 10 16 0.00 0.00
12:56 pm 12:56 Cloudy 30 -1.1 23 -5 75 75 S 10 17 30.11 1020 10 16 0.00 0.00
1:56 pm 13:56 Cloudy 32 0 24 -4.4 73 73 S 10 17 30.08 1019 10 16 0.00 0.00
2:56 pm 14:56 Cloudy 33 0.6 24 -4.4 70 70 S 10 17 30.07 1018 10 16 0.00 0.00
3:56 pm 15:56 Cloudy 33 0.6 25 -3.9 72 72 S 9 15 30.06 1018 10 16 0.00 0.00
4:56 pm 16:56 Cloudy 33 0.6 26 -3.3 75 75 S 12 19 30.05 1018 10 16 0.00 0.00
5:56 pm 17:56 Clear 31 -0.6 28 -2.2 89 89 SSE 10 17 30.05 1018 10 16 0.00 0.00
6:56 pm 18:56 Cloudy 32 0 28 -2.2 85 85 SSE 14 22 30.04 1017 10 16 0.00 0.00
7:56 pm 19:56 Cloudy 32 0 29 -1.7 88 88 S 12 19 30.02 1017 10 16 0.00 0.00
8:56 pm 20:56 Mostly Clear 32 0 29 -1.7 88 88 S 10 17 30.00 1016 10 16 0.00 0.00
9:56 pm 21:56 Clear 32 0 29 -1.7 88 88 S 10 17 29.98 1015 10 16 0.00 0.00
10:56 pm 22:56 Clear 32 0 29 -1.7 88 88 S 10 17 29.96 1014 10 16 0.00 0.00
11:56 pm 23:56 Clear 34 1.1 30 -1.1 85 85 SSW 9 15 29.95 1014 10 16 0.00 0.00

Powered by AerisWeather